Year,Month,Day,Hour,Minute,Value (Times are PST for temperature in C)
2018,05,28,00,00,15.40
2018,05,28,00,01,15.30
2018,05,28,00,02,15.30
2018,05,28,00,03,15.30
2018,05,28,00,04,15.30
2018,05,28,00,05,15.30
2018,05,28,00,06,15.20
2018,05,28,00,07,15.20
2018,05,28,00,08,15.20
2018,05,28,00,09,15.10
2018,05,28,00,10,15.10
2018,05,28,00,11,15.10
2018,05,28,00,12,15.00
2018,05,28,00,13,15.00
2018,05,28,00,14,14.90
2018,05,28,00,15,14.90
2018,05,28,00,16,14.90
2018,05,28,00,17,14.90
2018,05,28,00,18,14.90
2018,05,28,00,19,14.80
2018,05,28,00,20,14.80
2018,05,28,00,21,14.80
2018,05,28,00,22,14.80
2018,05,28,00,23,14.80
2018,05,28,00,24,14.70
2018,05,28,00,25,14.70
2018,05,28,00,26,14.70
2018,05,28,00,27,14.70
2018,05,28,00,28,14.70
2018,05,28,00,29,14.60
2018,05,28,00,30,14.60
2018,05,28,00,31,14.60
2018,05,28,00,32,14.50
2018,05,28,00,33,14.50
2018,05,28,00,34,14.50
2018,05,28,00,35,14.50
2018,05,28,00,36,14.50
2018,05,28,00,37,14.50
2018,05,28,00,38,14.50
2018,05,28,00,39,14.40
2018,05,28,00,40,14.40
2018,05,28,00,41,14.40
2018,05,28,00,42,14.40
2018,05,28,00,43,14.40
2018,05,28,00,44,14.40
2018,05,28,00,45,14.40
2018,05,28,00,46,14.30
2018,05,28,00,47,14.30
2018,05,28,00,48,14.30
2018,05,28,00,49,14.30
2018,05,28,00,50,14.30
2018,05,28,00,51,14.30
2018,05,28,00,52,14.30
2018,05,28,00,53,14.20
2018,05,28,00,54,14.20
2018,05,28,00,55,14.20
2018,05,28,00,56,14.20
2018,05,28,00,57,14.20
2018,05,28,00,58,14.20
2018,05,28,00,59,14.10
2018,05,28,01,00,14.10
2018,05,28,01,01,14.00
2018,05,28,01,02,14.00
2018,05,28,01,03,14.00
2018,05,28,01,04,14.00
2018,05,28,01,05,14.00
2018,05,28,01,06,13.90
2018,05,28,01,07,13.90
2018,05,28,01,08,13.90
2018,05,28,01,09,13.90
2018,05,28,01,10,13.90
2018,05,28,01,11,13.90
2018,05,28,01,12,13.90
2018,05,28,01,13,13.90
2018,05,28,01,14,13.80
2018,05,28,01,15,13.80
2018,05,28,01,16,13.80
2018,05,28,01,17,13.80
2018,05,28,01,18,13.80
2018,05,28,01,19,13.80
2018,05,28,01,20,13.80
2018,05,28,01,21,13.80
2018,05,28,01,22,13.80
2018,05,28,01,23,13.80
2018,05,28,01,24,13.70
2018,05,28,01,25,13.70
2018,05,28,01,26,13.70
2018,05,28,01,27,13.70
2018,05,28,01,28,13.70
2018,05,28,01,29,13.70
2018,05,28,01,30,13.60
2018,05,28,01,31,13.70
2018,05,28,01,32,13.60
2018,05,28,01,33,13.60
2018,05,28,01,34,13.60
2018,05,28,01,35,13.50
2018,05,28,01,36,13.50
2018,05,28,01,37,13.40
2018,05,28,01,38,13.40
2018,05,28,01,39,13.40
2018,05,28,01,40,13.40
2018,05,28,01,41,13.40
2018,05,28,01,42,13.40
2018,05,28,01,43,13.30
2018,05,28,01,44,13.30
2018,05,28,01,45,13.30
2018,05,28,01,46,13.30
2018,05,28,01,47,13.30
2018,05,28,01,48,13.30
2018,05,28,01,49,13.20
2018,05,28,01,50,13.20
2018,05,28,01,51,13.20
2018,05,28,01,52,13.20
2018,05,28,01,53,13.10
2018,05,28,01,54,13.10
2018,05,28,01,55,13.10
2018,05,28,01,56,13.10
2018,05,28,01,57,13.00
2018,05,28,01,58,13.00
2018,05,28,01,59,13.00
2018,05,28,02,00,12.90
2018,05,28,02,01,12.90
2018,05,28,02,02,12.90
2018,05,28,02,03,12.80
2018,05,28,02,04,12.80
2018,05,28,02,05,12.80
2018,05,28,02,06,12.80
2018,05,28,02,07,12.80
2018,05,28,02,08,12.80
2018,05,28,02,09,12.80
2018,05,28,02,10,12.70
2018,05,28,02,11,12.70
2018,05,28,02,12,12.70
2018,05,28,02,13,12.70
2018,05,28,02,14,12.70
2018,05,28,02,15,12.70
2018,05,28,02,16,12.70
2018,05,28,02,17,12.60
2018,05,28,02,18,12.60
2018,05,28,02,19,12.60
2018,05,28,02,20,12.60
2018,05,28,02,21,12.60
2018,05,28,02,22,12.60
2018,05,28,02,23,12.50
2018,05,28,02,24,12.50
2018,05,28,02,25,12.50
2018,05,28,02,26,12.40
2018,05,28,02,27,12.40
2018,05,28,02,28,12.40
2018,05,28,02,29,12.40
2018,05,28,02,30,12.30
2018,05,28,02,31,12.30
2018,05,28,02,32,12.30
2018,05,28,02,33,12.30
2018,05,28,02,34,12.30
2018,05,28,02,35,12.20
2018,05,28,02,36,12.20
2018,05,28,02,37,12.20
2018,05,28,02,38,12.20
2018,05,28,02,39,12.20
2018,05,28,02,40,12.10
2018,05,28,02,41,12.10
2018,05,28,02,42,12.10
2018,05,28,02,43,12.10
2018,05,28,02,44,12.10
2018,05,28,02,45,12.00
2018,05,28,02,46,12.00
2018,05,28,02,47,12.00
2018,05,28,02,48,12.00
2018,05,28,02,49,12.00
2018,05,28,02,50,12.00
2018,05,28,02,51,12.00
2018,05,28,02,52,12.00
2018,05,28,02,53,12.00
2018,05,28,02,54,11.90
2018,05,28,02,55,11.90
2018,05,28,02,56,11.90
2018,05,28,02,57,11.90
2018,05,28,02,58,11.90
2018,05,28,02,59,11.80
2018,05,28,03,00,11.80
2018,05,28,03,01,11.80
2018,05,28,03,02,11.80
2018,05,28,03,03,11.80
2018,05,28,03,04,11.80
2018,05,28,03,05,11.80
2018,05,28,03,06,11.70
2018,05,28,03,07,11.70
2018,05,28,03,08,11.70
2018,05,28,03,09,11.70
2018,05,28,03,10,11.70
2018,05,28,03,11,11.70
2018,05,28,03,12,11.60
2018,05,28,03,13,11.60
2018,05,28,03,14,11.60
2018,05,28,03,15,11.60
2018,05,28,03,16,11.60
2018,05,28,03,17,11.50
2018,05,28,03,18,11.50
2018,05,28,03,19,11.50
2018,05,28,03,20,11.50
2018,05,28,03,21,11.50
2018,05,28,03,22,11.50
2018,05,28,03,23,11.50
2018,05,28,03,24,11.50
2018,05,28,03,25,11.50
2018,05,28,03,26,11.50
2018,05,28,03,27,11.50
2018,05,28,03,28,11.50
2018,05,28,03,29,11.60
2018,05,28,03,30,11.60
2018,05,28,03,31,11.60
2018,05,28,03,32,11.60
2018,05,28,03,33,11.60
2018,05,28,03,34,11.60
2018,05,28,03,35,11.60
2018,05,28,03,36,11.60
2018,05,28,03,37,11.60
2018,05,28,03,38,11.50
2018,05,28,03,39,11.50
2018,05,28,03,40,11.40
2018,05,28,03,41,11.40
2018,05,28,03,42,11.40
2018,05,28,03,43,11.40
2018,05,28,03,44,11.30
2018,05,28,03,45,11.30
2018,05,28,03,46,11.30
2018,05,28,03,47,11.30
2018,05,28,03,48,11.30
2018,05,28,03,49,11.20
2018,05,28,03,50,11.20
2018,05,28,03,51,11.20
2018,05,28,03,52,11.20
2018,05,28,03,53,11.20
2018,05,28,03,54,11.20
2018,05,28,03,55,11.20
2018,05,28,03,56,11.20
2018,05,28,03,57,11.20
2018,05,28,03,58,11.20
2018,05,28,03,59,11.20
2018,05,28,04,00,11.20
2018,05,28,04,01,11.20
2018,05,28,04,02,11.30
2018,05,28,04,03,11.30
2018,05,28,04,04,11.30
2018,05,28,04,05,11.30
2018,05,28,04,06,11.40
2018,05,28,04,07,11.40
2018,05,28,04,08,11.40
2018,05,28,04,09,11.40
2018,05,28,04,10,11.50
2018,05,28,04,11,11.50
2018,05,28,04,12,11.50
2018,05,28,04,13,11.50
2018,05,28,04,14,11.50
2018,05,28,04,15,11.50
2018,05,28,04,16,11.50
2018,05,28,04,17,11.50
2018,05,28,04,18,11.50
2018,05,28,04,19,11.50
2018,05,28,04,20,11.50
2018,05,28,04,21,11.60
2018,05,28,04,22,11.60
2018,05,28,04,23,11.60
2018,05,28,04,24,11.60
2018,05,28,04,25,11.60
2018,05,28,04,26,11.60
2018,05,28,04,27,11.60
2018,05,28,04,28,11.70
2018,05,28,04,29,11.70
2018,05,28,04,30,11.70
2018,05,28,04,31,11.70
2018,05,28,04,32,11.70
2018,05,28,04,33,11.70
2018,05,28,04,34,11.70
2018,05,28,04,35,11.70
2018,05,28,04,36,11.70
2018,05,28,04,37,11.70
2018,05,28,04,38,11.70
2018,05,28,04,39,11.70
2018,05,28,04,40,11.80
2018,05,28,04,41,11.80
2018,05,28,04,42,11.70
2018,05,28,04,43,11.70
2018,05,28,04,44,11.70
2018,05,28,04,45,11.70
2018,05,28,04,46,11.70
2018,05,28,04,47,11.70
2018,05,28,04,48,11.70
2018,05,28,04,49,11.70
2018,05,28,04,50,11.70
2018,05,28,04,51,11.70
2018,05,28,04,52,11.70
2018,05,28,04,53,11.70
2018,05,28,04,54,11.70
2018,05,28,04,55,11.70
2018,05,28,04,56,11.70
2018,05,28,04,57,11.70
2018,05,28,04,58,11.60
2018,05,28,04,59,11.60
2018,05,28,05,00,11.60
2018,05,28,05,01,11.60
2018,05,28,05,02,11.60
2018,05,28,05,03,11.60
2018,05,28,05,04,11.60
2018,05,28,05,05,11.50
2018,05,28,05,06,11.50
2018,05,28,05,07,11.50
2018,05,28,05,08,11.50
2018,05,28,05,09,11.50
2018,05,28,05,10,11.50
2018,05,28,05,11,11.50
2018,05,28,05,12,11.50
2018,05,28,05,13,11.50
2018,05,28,05,14,11.50
2018,05,28,05,15,11.50
2018,05,28,05,16,11.50
2018,05,28,05,17,11.50
2018,05,28,05,18,11.50
2018,05,28,05,19,11.40
2018,05,28,05,20,11.40
2018,05,28,05,21,11.40
2018,05,28,05,22,11.40
2018,05,28,05,23,11.40
2018,05,28,05,24,11.30
2018,05,28,05,25,11.30
2018,05,28,05,26,11.30
2018,05,28,05,27,11.30
2018,05,28,05,28,11.30
2018,05,28,05,29,11.30
2018,05,28,05,30,11.30
2018,05,28,05,31,11.20
2018,05,28,05,32,11.20
2018,05,28,05,33,11.20
2018,05,28,05,34,11.20
2018,05,28,05,35,11.10
2018,05,28,05,36,11.10
2018,05,28,05,37,11.10
2018,05,28,05,38,11.00
2018,05,28,05,39,11.00
2018,05,28,05,40,11.00
2018,05,28,05,41,10.90
2018,05,28,05,42,10.90
2018,05,28,05,43,10.90
2018,05,28,05,44,10.80
2018,05,28,05,45,10.80
2018,05,28,05,46,10.80
2018,05,28,05,47,10.80
2018,05,28,05,48,10.70
2018,05,28,05,49,10.70
2018,05,28,05,50,10.70
2018,05,28,05,51,10.70
2018,05,28,05,52,10.70
2018,05,28,05,53,10.60
2018,05,28,05,54,10.60
2018,05,28,05,55,10.60
2018,05,28,05,56,10.60
2018,05,28,05,57,10.60
2018,05,28,05,58,10.60
2018,05,28,05,59,10.60
2018,05,28,06,00,10.60
2018,05,28,06,01,10.60
2018,05,28,06,02,10.60
2018,05,28,06,03,10.60
2018,05,28,06,04,10.60
2018,05,28,06,05,10.60
2018,05,28,06,06,10.60
2018,05,28,06,07,10.60
2018,05,28,06,08,10.50
2018,05,28,06,09,10.50
2018,05,28,06,10,10.50
2018,05,28,06,11,10.50
2018,05,28,06,12,10.40
2018,05,28,06,13,10.40
2018,05,28,06,14,10.40
2018,05,28,06,15,10.40
2018,05,28,06,16,10.40
2018,05,28,06,17,10.40
2018,05,28,06,18,10.40
2018,05,28,06,19,10.40
2018,05,28,06,20,10.30
2018,05,28,06,21,10.40
2018,05,28,06,22,10.40
2018,05,28,06,23,10.40
2018,05,28,06,24,10.40
2018,05,28,06,25,10.40
2018,05,28,06,26,10.40
2018,05,28,06,27,10.40
2018,05,28,06,28,10.40
2018,05,28,06,29,10.50
2018,05,28,06,30,10.50
2018,05,28,06,31,10.50
2018,05,28,06,32,10.50
2018,05,28,06,33,10.50
2018,05,28,06,34,10.50
2018,05,28,06,35,10.60
2018,05,28,06,36,10.60
2018,05,28,06,37,10.60
2018,05,28,06,38,10.60
2018,05,28,06,39,10.60
2018,05,28,06,40,10.60
2018,05,28,06,41,10.70
2018,05,28,06,42,10.70
2018,05,28,06,43,10.70
2018,05,28,06,44,10.70
2018,05,28,06,45,10.70
2018,05,28,06,46,10.80
2018,05,28,06,47,10.80
2018,05,28,06,48,10.80
2018,05,28,06,49,10.80
2018,05,28,06,50,10.90
2018,05,28,06,51,10.90
2018,05,28,06,52,10.90
2018,05,28,06,53,11.00
2018,05,28,06,54,11.00
2018,05,28,06,55,11.00
2018,05,28,06,56,11.10
2018,05,28,06,57,11.10
2018,05,28,06,58,11.20
2018,05,28,06,59,11.20
2018,05,28,07,00,11.30
2018,05,28,07,01,11.30
2018,05,28,07,02,11.40
2018,05,28,07,03,11.40
2018,05,28,07,04,11.50
2018,05,28,07,05,11.60
2018,05,28,07,06,11.60
2018,05,28,07,07,11.60
2018,05,28,07,08,11.60
2018,05,28,07,09,11.70
2018,05,28,07,10,11.70
2018,05,28,07,11,11.70
2018,05,28,07,12,11.70
2018,05,28,07,13,11.70
2018,05,28,07,14,11.80
2018,05,28,07,15,11.80
2018,05,28,07,16,11.90
2018,05,28,07,17,11.90
2018,05,28,07,18,12.00
2018,05,28,07,19,12.00
2018,05,28,07,20,12.10
2018,05,28,07,21,12.10
2018,05,28,07,22,12.10
2018,05,28,07,23,12.10
2018,05,28,07,24,12.20
2018,05,28,07,25,12.20
2018,05,28,07,26,12.20
2018,05,28,07,27,12.30
2018,05,28,07,28,12.30
2018,05,28,07,29,12.30
2018,05,28,07,30,12.30
2018,05,28,07,31,12.40
2018,05,28,07,32,12.40
2018,05,28,07,33,12.40
2018,05,28,07,34,12.40
2018,05,28,07,35,12.50
2018,05,28,07,36,12.50
2018,05,28,07,37,12.50
2018,05,28,07,38,12.60
2018,05,28,07,39,12.60
2018,05,28,07,40,12.60
2018,05,28,07,41,12.60
2018,05,28,07,42,12.70
2018,05,28,07,43,12.70
2018,05,28,07,44,12.70
2018,05,28,07,45,12.80
2018,05,28,07,46,12.80
2018,05,28,07,47,12.80
2018,05,28,07,48,12.90
2018,05,28,07,49,12.90
2018,05,28,07,50,13.00
2018,05,28,07,51,13.00
2018,05,28,07,52,13.00
2018,05,28,07,53,13.10
2018,05,28,07,54,13.10
2018,05,28,07,55,13.10
2018,05,28,07,56,13.20
2018,05,28,07,57,13.20
2018,05,28,07,58,13.20
2018,05,28,07,59,13.20
2018,05,28,08,00,13.20
2018,05,28,08,01,13.20
2018,05,28,08,02,13.20
2018,05,28,08,03,13.30
2018,05,28,08,04,13.30
2018,05,28,08,05,13.30
2018,05,28,08,06,13.40
2018,05,28,08,07,13.50
2018,05,28,08,08,13.60
2018,05,28,08,09,13.60
2018,05,28,08,10,13.70
2018,05,28,08,11,13.80
2018,05,28,08,12,13.80
2018,05,28,08,13,13.90
2018,05,28,08,14,13.90
2018,05,28,08,15,13.90
2018,05,28,08,16,14.00
2018,05,28,08,17,14.00
2018,05,28,08,18,14.10
2018,05,28,08,19,14.10
2018,05,28,08,20,14.20
2018,05,28,08,21,14.30
2018,05,28,08,22,14.30
2018,05,28,08,23,14.40
2018,05,28,08,24,14.50
2018,05,28,08,25,14.60
2018,05,28,08,26,14.60
2018,05,28,08,27,14.70
2018,05,28,08,28,14.70
2018,05,28,08,29,14.80
2018,05,28,08,30,14.80
2018,05,28,08,31,14.80
2018,05,28,08,32,14.70
2018,05,28,08,33,14.70
2018,05,28,08,34,14.70
2018,05,28,08,35,14.60
2018,05,28,08,36,14.60
2018,05,28,08,37,14.50
2018,05,28,08,38,14.50
2018,05,28,08,39,14.50
2018,05,28,08,40,14.50
2018,05,28,08,41,14.50
2018,05,28,08,42,14.50
2018,05,28,08,43,14.50
2018,05,28,08,44,14.50
2018,05,28,08,45,14.50
2018,05,28,08,46,14.50
2018,05,28,08,47,14.50
2018,05,28,08,48,14.40
2018,05,28,08,49,14.40
2018,05,28,08,50,14.50
2018,05,28,08,51,14.50
2018,05,28,08,52,14.50
2018,05,28,08,53,14.50
2018,05,28,08,54,14.50
2018,05,28,08,55,14.50
2018,05,28,08,56,14.50
2018,05,28,08,57,14.50
2018,05,28,08,58,14.50
2018,05,28,08,59,14.40
2018,05,28,09,00,14.40
2018,05,28,09,01,14.30
2018,05,28,09,02,14.30
2018,05,28,09,03,14.30
2018,05,28,09,04,14.20
2018,05,28,09,05,14.20
2018,05,28,09,06,14.20
2018,05,28,09,07,14.20
2018,05,28,09,08,14.20
2018,05,28,09,09,14.20
2018,05,28,09,10,14.20
2018,05,28,09,11,14.20
2018,05,28,09,12,14.20
2018,05,28,09,13,14.20
2018,05,28,09,14,14.20
2018,05,28,09,15,14.20
2018,05,28,09,16,14.20
2018,05,28,09,17,14.20
2018,05,28,09,18,14.20
2018,05,28,09,19,14.20
2018,05,28,09,20,14.20
2018,05,28,09,21,14.20
2018,05,28,09,22,14.20
2018,05,28,09,23,14.20
2018,05,28,09,24,14.20
2018,05,28,09,25,14.30
2018,05,28,09,26,14.30
2018,05,28,09,27,14.30
2018,05,28,09,28,14.40
2018,05,28,09,29,14.40
2018,05,28,09,30,14.40
2018,05,28,09,31,14.50
2018,05,28,09,32,14.50
2018,05,28,09,33,14.60
2018,05,28,09,34,14.60
2018,05,28,09,35,14.70
2018,05,28,09,36,14.70
2018,05,28,09,37,14.80
2018,05,28,09,38,14.80
2018,05,28,09,39,14.90
2018,05,28,09,40,14.90
2018,05,28,09,41,14.90
2018,05,28,09,42,15.00
2018,05,28,09,43,15.00
2018,05,28,09,44,15.00
2018,05,28,09,45,15.10
2018,05,28,09,46,15.10
2018,05,28,09,47,15.10
2018,05,28,09,48,15.20
2018,05,28,09,49,15.20
2018,05,28,09,50,15.30
2018,05,28,09,51,15.30
2018,05,28,09,52,15.40
2018,05,28,09,53,15.40
2018,05,28,09,54,15.50
2018,05,28,09,55,15.50
2018,05,28,09,56,15.50
2018,05,28,09,57,15.50
2018,05,28,09,58,15.50
2018,05,28,09,59,15.50
2018,05,28,10,00,15.60
2018,05,28,10,01,15.60
2018,05,28,10,02,15.60
2018,05,28,10,03,15.60
2018,05,28,10,04,15.60
2018,05,28,10,05,15.50
2018,05,28,10,06,15.50
2018,05,28,10,07,15.40
2018,05,28,10,08,15.40
2018,05,28,10,09,15.30
2018,05,28,10,10,15.30
2018,05,28,10,11,15.20
2018,05,28,10,12,15.20
2018,05,28,10,13,15.20
2018,05,28,10,14,15.10
2018,05,28,10,15,15.00
2018,05,28,10,16,14.90
2018,05,28,10,17,14.90
2018,05,28,10,18,14.90
2018,05,28,10,19,14.90
2018,05,28,10,20,14.90
2018,05,28,10,21,14.80
2018,05,28,10,22,14.80
2018,05,28,10,23,14.80
2018,05,28,10,24,14.80
2018,05,28,10,25,14.80
2018,05,28,10,26,14.70
2018,05,28,10,27,14.70
2018,05,28,10,28,14.70
2018,05,28,10,29,14.60
2018,05,28,10,30,14.60
2018,05,28,10,31,14.60
2018,05,28,10,32,14.50
2018,05,28,10,33,14.50
2018,05,28,10,34,14.40
2018,05,28,10,35,14.40
2018,05,28,10,36,14.40
2018,05,28,10,37,14.40
2018,05,28,10,38,14.40
2018,05,28,10,39,14.40
2018,05,28,10,40,14.40
2018,05,28,10,41,14.30
2018,05,28,10,42,14.30
2018,05,28,10,43,14.30
2018,05,28,10,44,14.40
2018,05,28,10,45,14.40
2018,05,28,10,46,14.40
2018,05,28,10,47,14.40
2018,05,28,10,48,14.30
2018,05,28,10,49,14.20
2018,05,28,10,50,14.10
2018,05,28,10,51,14.10
2018,05,28,10,52,14.10
2018,05,28,10,53,14.20
2018,05,28,10,54,14.30
2018,05,28,10,55,14.30
2018,05,28,10,56,14.30
2018,05,28,10,57,14.20
2018,05,28,10,58,14.20
2018,05,28,10,59,14.30
2018,05,28,11,00,14.30
2018,05,28,11,01,14.30
2018,05,28,11,02,14.40
2018,05,28,11,03,14.40
2018,05,28,11,04,14.40
2018,05,28,11,05,14.30
2018,05,28,11,06,14.30
2018,05,28,11,07,14.30
2018,05,28,11,08,14.40
2018,05,28,11,09,14.50
2018,05,28,11,10,14.50
2018,05,28,11,11,14.60
2018,05,28,11,12,14.70
2018,05,28,11,13,14.80
2018,05,28,11,14,14.80
2018,05,28,11,15,14.80
2018,05,28,11,16,14.80
2018,05,28,11,17,14.90
2018,05,28,11,18,14.90
2018,05,28,11,19,14.90
2018,05,28,11,20,14.90
2018,05,28,11,21,14.90
2018,05,28,11,22,15.00
2018,05,28,11,23,15.10
2018,05,28,11,24,15.20
2018,05,28,11,25,15.30
2018,05,28,11,26,15.40
2018,05,28,11,27,15.40
2018,05,28,11,28,15.30
2018,05,28,11,29,15.30
2018,05,28,11,30,15.30
2018,05,28,11,31,15.40
2018,05,28,11,32,15.40
2018,05,28,11,33,15.50
2018,05,28,11,34,15.50
2018,05,28,11,35,15.50
2018,05,28,11,36,15.50
2018,05,28,11,37,15.40
2018,05,28,11,38,15.30
2018,05,28,11,39,15.30
2018,05,28,11,40,15.30
2018,05,28,11,41,15.40
2018,05,28,11,42,15.40
2018,05,28,11,43,15.40
2018,05,28,11,44,15.40
2018,05,28,11,45,15.40
2018,05,28,11,46,15.40
2018,05,28,11,47,15.40
2018,05,28,11,48,15.40
2018,05,28,11,49,15.40
2018,05,28,11,50,15.40
2018,05,28,11,51,15.50
2018,05,28,11,52,15.50
2018,05,28,11,53,15.60
2018,05,28,11,54,15.70
2018,05,28,11,55,15.80
2018,05,28,11,56,15.90
2018,05,28,11,57,15.90
2018,05,28,11,58,16.00
2018,05,28,11,59,16.10
2018,05,28,12,00,16.10
2018,05,28,12,01,16.10
2018,05,28,12,02,16.10
2018,05,28,12,03,16.10
2018,05,28,12,04,16.10
2018,05,28,12,05,16.10
2018,05,28,12,06,16.20
2018,05,28,12,07,16.20
2018,05,28,12,08,16.30
2018,05,28,12,09,16.30
2018,05,28,12,10,16.30
2018,05,28,12,11,16.30
2018,05,28,12,12,16.30
2018,05,28,12,13,16.30
2018,05,28,12,14,16.30
2018,05,28,12,15,16.30
2018,05,28,12,16,16.30
2018,05,28,12,17,16.40
2018,05,28,12,18,16.40
2018,05,28,12,19,16.40
2018,05,28,12,20,16.40
2018,05,28,12,21,16.40
2018,05,28,12,22,16.40
2018,05,28,12,23,16.30
2018,05,28,12,24,16.40
2018,05,28,12,25,16.50
2018,05,28,12,26,16.50
2018,05,28,12,27,16.60
2018,05,28,12,28,16.60
2018,05,28,12,29,16.70
2018,05,28,12,30,16.70
2018,05,28,12,31,16.70
2018,05,28,12,32,16.70
2018,05,28,12,33,16.70
2018,05,28,12,34,16.70
2018,05,28,12,35,16.80
2018,05,28,12,36,16.80
2018,05,28,12,37,16.80
2018,05,28,12,38,16.80
2018,05,28,12,39,16.90
2018,05,28,12,40,16.90
2018,05,28,12,41,16.80
2018,05,28,12,42,16.80
2018,05,28,12,43,16.70
2018,05,28,12,44,16.70
2018,05,28,12,45,16.60
2018,05,28,12,46,16.60
2018,05,28,12,47,16.60
2018,05,28,12,48,16.70
2018,05,28,12,49,16.80
2018,05,28,12,50,16.80
2018,05,28,12,51,16.80
2018,05,28,12,52,16.80
2018,05,28,12,53,16.80
2018,05,28,12,54,16.70
2018,05,28,12,55,16.70
2018,05,28,12,56,16.80
2018,05,28,12,57,16.80
2018,05,28,12,58,16.80
2018,05,28,12,59,16.80
2018,05,28,13,00,16.80
2018,05,28,13,01,16.70
2018,05,28,13,02,16.70
2018,05,28,13,03,16.60
2018,05,28,13,04,16.60
2018,05,28,13,05,16.70
2018,05,28,13,06,16.60
2018,05,28,13,07,16.60
2018,05,28,13,08,16.60
2018,05,28,13,09,16.60
2018,05,28,13,10,16.60
2018,05,28,13,11,16.60
2018,05,28,13,12,16.50
2018,05,28,13,13,16.50
2018,05,28,13,14,16.50
2018,05,28,13,15,16.40
2018,05,28,13,16,16.30
2018,05,28,13,17,16.30
2018,05,28,13,18,16.30
2018,05,28,13,19,16.40
2018,05,28,13,20,16.50
2018,05,28,13,21,16.60
2018,05,28,13,22,16.60
2018,05,28,13,23,16.60
2018,05,28,13,24,16.60
2018,05,28,13,25,16.60
2018,05,28,13,26,16.70
2018,05,28,13,27,16.70
2018,05,28,13,28,16.70
2018,05,28,13,29,16.70
2018,05,28,13,30,16.70
2018,05,28,13,31,16.70
2018,05,28,13,32,16.70
2018,05,28,13,33,16.70
2018,05,28,13,34,16.70
2018,05,28,13,35,16.80
2018,05,28,13,36,16.90
2018,05,28,13,37,16.90
2018,05,28,13,38,16.90
2018,05,28,13,39,16.80
2018,05,28,13,40,16.80
2018,05,28,13,41,16.70
2018,05,28,13,42,16.70
2018,05,28,13,43,16.60
2018,05,28,13,44,16.50
2018,05,28,13,45,16.50
2018,05,28,13,46,16.40
2018,05,28,13,47,16.30
2018,05,28,13,48,16.20
2018,05,28,13,49,16.10
2018,05,28,13,50,16.00
2018,05,28,13,51,16.00
2018,05,28,13,52,15.90
2018,05,28,13,53,15.90
2018,05,28,13,54,16.00
2018,05,28,13,55,16.00
2018,05,28,13,56,16.10
2018,05,28,13,57,16.20
2018,05,28,13,58,16.20
2018,05,28,13,59,16.20
2018,05,28,14,00,16.30
2018,05,28,14,01,16.30
2018,05,28,14,02,16.30
2018,05,28,14,03,16.30
2018,05,28,14,04,16.30
2018,05,28,14,05,16.40
2018,05,28,14,06,16.40
2018,05,28,14,07,16.50
2018,05,28,14,08,16.60
2018,05,28,14,09,16.60
2018,05,28,14,10,16.70
2018,05,28,14,11,16.70
2018,05,28,14,12,16.80
2018,05,28,14,13,16.70
2018,05,28,14,14,16.70
2018,05,28,14,15,16.60
2018,05,28,14,16,16.70
2018,05,28,14,17,16.80
2018,05,28,14,18,16.80
2018,05,28,14,19,16.90
2018,05,28,14,20,16.90
2018,05,28,14,21,17.00
2018,05,28,14,22,16.90
2018,05,28,14,23,16.90
2018,05,28,14,24,16.90
2018,05,28,14,25,16.80
2018,05,28,14,26,16.80
2018,05,28,14,27,16.80
2018,05,28,14,28,16.70
2018,05,28,14,29,16.70
2018,05,28,14,30,16.70
2018,05,28,14,31,16.70
2018,05,28,14,32,16.80
2018,05,28,14,33,16.80
2018,05,28,14,34,16.90
2018,05,28,14,35,16.90
2018,05,28,14,36,16.90
2018,05,28,14,37,17.00
2018,05,28,14,38,17.00
2018,05,28,14,39,17.10
2018,05,28,14,40,17.20
2018,05,28,14,41,17.20
2018,05,28,14,42,17.20
2018,05,28,14,43,17.30
2018,05,28,14,44,17.20
2018,05,28,14,45,17.20
2018,05,28,14,46,17.20
2018,05,28,14,47,17.20
2018,05,28,14,48,17.20
2018,05,28,14,49,17.20
2018,05,28,14,50,17.20
2018,05,28,14,51,17.30
2018,05,28,14,52,17.30
2018,05,28,14,53,17.30
2018,05,28,14,54,17.20
2018,05,28,14,55,17.20
2018,05,28,14,56,17.10
2018,05,28,14,57,17.10
2018,05,28,14,58,17.10
2018,05,28,14,59,17.10
2018,05,28,15,00,17.20
2018,05,28,15,01,17.20
2018,05,28,15,02,17.20
2018,05,28,15,03,17.40
2018,05,28,15,04,17.50
2018,05,28,15,05,17.60
2018,05,28,15,06,17.60
2018,05,28,15,07,17.50
2018,05,28,15,08,17.50
2018,05,28,15,09,17.50
2018,05,28,15,10,17.60
2018,05,28,15,11,17.70
2018,05,28,15,12,17.70
2018,05,28,15,13,17.70
2018,05,28,15,14,17.80
2018,05,28,15,15,17.70
2018,05,28,15,16,17.70
2018,05,28,15,17,17.60
2018,05,28,15,18,17.70
2018,05,28,15,19,17.70
2018,05,28,15,20,17.80
2018,05,28,15,21,17.80
2018,05,28,15,22,17.90
2018,05,28,15,23,17.90
2018,05,28,15,24,17.90
2018,05,28,15,25,17.90
2018,05,28,15,26,17.90
2018,05,28,15,27,17.90
2018,05,28,15,28,17.90
2018,05,28,15,29,17.90
2018,05,28,15,30,17.90
2018,05,28,15,31,17.80
2018,05,28,15,32,17.70
2018,05,28,15,33,17.60
2018,05,28,15,34,17.60
2018,05,28,15,35,17.70
2018,05,28,15,36,17.70
2018,05,28,15,37,17.70
2018,05,28,15,38,17.70
2018,05,28,15,39,17.70
2018,05,28,15,40,17.80
2018,05,28,15,41,17.80
2018,05,28,15,42,17.80
2018,05,28,15,43,17.80
2018,05,28,15,44,17.80
2018,05,28,15,45,17.80
2018,05,28,15,46,17.80
2018,05,28,15,47,17.80
2018,05,28,15,48,17.80
2018,05,28,15,49,17.80
2018,05,28,15,50,17.80
2018,05,28,15,51,17.90
2018,05,28,15,52,17.90
2018,05,28,15,53,18.00
2018,05,28,15,54,18.00
2018,05,28,15,55,18.00
2018,05,28,15,56,18.00
2018,05,28,15,57,17.90
2018,05,28,15,58,17.90
2018,05,28,15,59,17.90
2018,05,28,16,00,17.80
2018,05,28,16,01,17.80
2018,05,28,16,02,17.90
2018,05,28,16,03,18.00
2018,05,28,16,04,18.10
2018,05,28,16,05,18.20
2018,05,28,16,06,18.30
2018,05,28,16,07,18.30
2018,05,28,16,08,18.30
2018,05,28,16,09,18.20
2018,05,28,16,10,18.10
2018,05,28,16,11,18.00
2018,05,28,16,12,18.00
2018,05,28,16,13,17.90
2018,05,28,16,14,17.90
2018,05,28,16,15,17.80
2018,05,28,16,16,17.70
2018,05,28,16,17,17.70
2018,05,28,16,18,17.70
2018,05,28,16,19,17.70
2018,05,28,16,20,17.80
2018,05,28,16,21,17.90
2018,05,28,16,22,17.80
2018,05,28,16,23,17.80
2018,05,28,16,24,17.70
2018,05,28,16,25,17.70
2018,05,28,16,26,17.70
2018,05,28,16,27,17.60
2018,05,28,16,28,17.50
2018,05,28,16,29,17.50
2018,05,28,16,30,17.60
2018,05,28,16,31,17.60
2018,05,28,16,32,17.70
2018,05,28,16,33,17.70
2018,05,28,16,34,17.60
2018,05,28,16,35,17.60
2018,05,28,16,36,17.50
2018,05,28,16,37,17.50
2018,05,28,16,38,17.60
2018,05,28,16,39,17.60
2018,05,28,16,40,17.70
2018,05,28,16,41,17.70
2018,05,28,16,42,17.70
2018,05,28,16,43,17.70
2018,05,28,16,44,17.70
2018,05,28,16,45,17.70
2018,05,28,16,46,17.70
2018,05,28,16,47,17.60
2018,05,28,16,48,17.60
2018,05,28,16,49,17.60
2018,05,28,16,50,17.70
2018,05,28,16,51,17.70
2018,05,28,16,52,17.80
2018,05,28,16,53,17.70
2018,05,28,16,54,17.70
2018,05,28,16,55,17.70
2018,05,28,16,56,17.70
2018,05,28,16,57,17.70
2018,05,28,16,58,17.70
2018,05,28,16,59,17.70
2018,05,28,17,00,17.70
2018,05,28,17,01,17.70
2018,05,28,17,02,17.70
2018,05,28,17,03,17.70
2018,05,28,17,04,17.60
2018,05,28,17,05,17.60
2018,05,28,17,06,17.50
2018,05,28,17,07,17.60
2018,05,28,17,08,17.50
2018,05,28,17,09,17.50
2018,05,28,17,10,17.50
2018,05,28,17,11,17.40
2018,05,28,17,12,17.40
2018,05,28,17,13,17.40
2018,05,28,17,14,17.40
2018,05,28,17,15,17.50
2018,05,28,17,16,17.50
2018,05,28,17,17,17.60
2018,05,28,17,18,17.60
2018,05,28,17,19,17.60